Regional Weather Roundup
Issued by NWS

Home | Current Version | Previous Version | Text Only | Print | Product List | Glossary Off
Versions: 1 2 3 4 5 6 7 8 9 10 11 12 13 14 15 16 17 18 19 20 21 22 23 24 25 26 27

000
ASUS45 KBOU 242007
RWRCO

WEATHER ROUNDUP FOR COLORADO
NATIONAL WEATHER SERVICE DENVER/BOULDER CO
200 PM MDT FRI MAR 24 2017

NOTE: "FAIR" INDICATES FEW OR NO CLOUDS BELOW 12000 FEET WITH NO
SIGNIFICANT WEATHER AND/OR OBSTRUCTIONS TO VISIBILITY.

COZ001>005-013-030-031-242100-
...NORTHWEST COLORADO...

CITY           SKY/WX    TMP DP  RH WIND       PRES   REMARKS
CRAIG          PTSUNNY   54  24  31 VRB6      30.18F
HAYDEN         PTSUNNY   50  21  32 NW14      30.17F
MEEKER         PTSUNNY   51  27  39 SW7       30.19F
MOUNT WERNER   NOT AVBL
STEAMBOAT SPGS FAIR      47  24  39 CALM      30.18S
WALDEN         NOT AVBL
$$

COZ006>008-011-242100-
...WEST CENTRAL VALLEYS...

CITY           SKY/WX    TMP DP  RH WIND       PRES   REMARKS
GRAND JUNCTION FAIR      60  28  29 CALM      30.16F
MONTROSE       PTSUNNY   54  27  35 W9G17     30.19S
EAGLE          MOSUNNY   52  23  32 NE13      30.18S
RIFLE          PTSUNNY   56  27  32 W6        30.16F
DELTA          FAIR      63  28  26 SW20G32   30.13F
NUCLA          FAIR      54  30  40 NW5       30.20F
$$

COZ017>023-064>068-242100-
...SOUTHWEST COLORADO...

CITY           SKY/WX    TMP DP  RH WIND       PRES   REMARKS
DURANGO        FAIR      58  25  28 W12G21    30.06S
CORTEZ         FAIR      56  30  37 N17G26    30.15S
PAGOSA SPRINGS FAIR      46  37  72 NE3       30.12S
TELLURIDE      NOT AVBL
WOLF CREEK PAS FAIR      30  16  55 NW6       30.25R WCI  24
$$

COZ009-010-012-014-032>034-037-058>063-242100-
...CENTRAL COLORADO...

CITY           SKY/WX    TMP DP  RH WIND       PRES   REMARKS
ASPEN          CLOUDY    42  28  57 NE7G13    30.18R
BUENA VISTA    FAIR      53  14  21 NW23G33   30.08R
COPPER MTN     CLOUDY    30  21  69 MISG      30.22R
BERTHOUD PASS  CLOUDY    19   9  63 N6        30.21R WCI  11
COTTONWOOD PAS FAIR      48  16  27 W3        30.13R
GUNNISON       FAIR      48  21  34 N14G21    30.13R
KREMMLING      PTSUNNY   54  23  30 NW12G22   30.19S
LEADVILLE      PTSUNNY   37  17  44 N15G24    30.15S
MONARCH PASS   FAIR      30  23  74 W22G28    30.30R WCI  17
SALIDA         FAIR      57  21  24 N13G18    30.14R
SUNLIGHT       FAIR     N/A N/A N/A W6        30.29S
WILKERSON PASS CLOUDY    28  25  86 NE9       30.20R WCI  20
$$

COZ069>075-242100-
...SAN LUIS VALLEY/SANGRE DE CRISTO MOUNTAINS...

CITY           SKY/WX    TMP DP  RH WIND       PRES   REMARKS
ALAMOSA        FAIR      53  27  36 N21G28    30.06R
LA VETA PASS   NOT AVBL
SAGUACHE       FAIR      52  23  32 N22       30.09R
$$

COZ035-036-038>040-242100-
...NORTHERN COLORADO FRONT RANGE...

CITY           SKY/WX    TMP DP  RH WIND       PRES   REMARKS
DENVER INTL AP CLOUDY    47  33  58 NE20      30.12S
DMNS CITY PARK   N/A     49  28  44 NE14G26   30.13R
AURORA         PTSUNNY   46  37  70 NE16      30.13R
FRONT RANGE AP PTSUNNY   45  36  70 N17G29    30.13S
ERIE MUNI ARPT CLOUDY    53  26  35 NE16      30.13R
BOULDER MUN AP PTSUNNY   55  27  33 N20G29    30.11S
CENTENNIAL     PTSUNNY   46  34  62 N15G24    30.12S
BROOMFIELD     PTSUNNY   50  28  43 N18G26    30.13S
FORT COLLINS   FAIR      59  26  28 N28       30.10F
LONGMONT       CLOUDY    58  26  29 N17       30.13S
$$

COZ041-046-047-076>085-087-088-242100-
...PIKES PEAK/PALMER DIVIDE AND SOUTHERN FOOTHILLS...

CITY           SKY/WX    TMP DP  RH WIND       PRES   REMARKS
COLO. SPRINGS  PTSUNNY   44  33  65 N28G41    30.11R
A. F. ACADEMY  CLOUDY    38  31  76 N21G32    30.11R
SCHRIEVER AFB  PTSUNNY   39  32  75 N28G36    30.10
ELLICOTT       NOT AVBL
FALCON         CLOUDY    37  32  80 N23G32    30.11R
FORT CARSON    PTSUNNY   44  30  58 N25G38    30.10R
LIMON          CLOUDY    36  35  96 N22G33    30.09R
MONUMENT HILL  CLOUDY    34  30  86 N20G26    30.14R WCI  22
TRINIDAD       NOT AVBL
$$

COZ042>045-048>051-090-091-242100-
...NORTHEAST COLORADO...

CITY           SKY/WX    TMP DP  RH WIND       PRES   REMARKS
GREELEY ARPT   CLOUDY    54  27  35 N22G28    30.12F
AKRON          CLOUDY    43  35  73 N26G33    30.08R
BURLINGTON     LGT SNOW  36  35  96 N29G36    30.00R FOG
WRAY           NOT AVBL
STERLING       PTSUNNY   50  36  57 N20G31    30.07F
HOLYOKE        DRIZZLE   45  37  76 N23G33    30.06R
FORT MORGAN    CLOUDY    50  31  48 N23G29    30.12S
$$

COZ086-089-092>099-242100-
...SOUTHEAST COLORADO...

CITY           SKY/WX    TMP DP  RH WIND       PRES   REMARKS
PUEBLO         CLOUDY    47  32  56 N24       30.12R
LA JUNTA       FAIR      42  37  82 N33G53    30.05R
LAMAR          CLOUDY    43  34  70 N33G43    29.96R
SPRINGFIELD      N/A     40  34  79 N39G47    29.92R
$$




USA.gov is the U.S. government's official web portal to all federal, state and local government web resources and services.